Torna al catalogo

STARLINK-34073

AttivoComunicazioniVLEO
NORAD 64606·PAYLOAD·🇺🇸 United States

Lanciato Jun 25, 2025 da Cape Canaveral Space Force Station

Loading…

Prossimi Passaggi (prossime 24 ore)

TLE

AggiornatoSource: CelesTrak SupGP

Epoca: Sep 15, 2026, 03:59 UTC

1 64606C 25137N   26258.16645833  .00045720  00000+0  13515-2 0  2581
2 64606  53.1603 174.4696 0001201  73.5315 300.2765 15.34352048    16

Traccia STARLINK-34073 in tempo reale con AllMySat

Download on the App Store